Regional Weather Roundup
Issued by NWS

Home | Current Version | Previous Version | Graphics & Text | Print | Product List | Glossary On
Versions: 1 2 3 4 5 6 7 8 9 10 11 12 13 14 15 16 17 18 19 20 21 22 23 24 25 26 27 28 29 30 31 32 33 34 35 36 37 38 39 40 41 42 43 44 45 46 47 48 49 50
000
ASUS43 KFSD 272010
RWRSD

WEATHER ROUNDUP FOR SOUTH DAKOTA
NATIONAL WEATHER SERVICE SIOUX FALLS SD
300 PM CDT WED AUG 27 2014

NOTE: "FAIR" INDICATES FEW OR NO CLOUDS BELOW 12,000 FEET WITH NO
SIGNIFICANT WEATHER AND/OR OBSTRUCTIONS TO VISIBILITY.


SDZ001>005-009-010-012>017-272100-
NORTHWEST AND NORTH CENTRAL SOUTH DAKOTA

CITY           SKY/WX    TMP DP  RH WIND       PRES   REMARKS
BUFFALO          N/A     78  58  49 SE10      30.03F
FAITH            N/A     67  62  84 SE12      30.11S
MOBRIDGE       CLOUDY    69  62  78 SE9       30.09S
$$

SDZ012>016-024>037-041>051-057-063-072>074-272100-
SOUTHWEST AND SOUTH CENTRAL SOUTH DAKOTA

CITY           SKY/WX    TMP DP  RH WIND       PRES   REMARKS
RAPID CTY ARPT CLOUDY    73  61  65 CALM      30.09F
PIERRE         CLOUDY    77  66  68 SE16      30.06F
CUSTER         CLOUDY    63  57  81 E7        30.20S
ELLSWORTH AFB  CLOUDY    73  61  64 E5        30.09F
PHILIP         CLOUDY    68  65  90 NE6       30.07F FOG
PINE RIDGE     CLOUDY    74  66  76 N10       30.06F
WINNER         CLOUDY    73  65  75 SE15      30.09F
$$

SDZ004>011-016>023-039-040-272100-
NORTHEAST SOUTH DAKOTA

CITY           SKY/WX    TMP DP  RH WIND       PRES   REMARKS
ABERDEEN       PTSUNNY   71  58  63 SE7       30.12F
WATERTOWN      PTSUNNY   72  59  63 S12G17    30.14F
SISSETON         N/A     74  58  57 SE8       30.13F
$$

SDZ017-020-022-023-036>040-048>070-272100-
SOUTHEAST SOUTH DAKOTA

CITY           SKY/WX    TMP DP  RH WIND       PRES   REMARKS
SIOUX FALLS    PTSUNNY   73  63  70 E12       30.12F
HURON          MOSUNNY   79  64  60 E10       30.08F
CHAMBERLAIN    CLOUDY    77  67  71 SE15      30.08F
MITCHELL       PTSUNNY   78  67  68 SE12      30.10S
YANKTON        CLOUDY    68  64  88 SE8       30.12F
$$

ABBREVIATIONS USED IN REMARKS
   TC - TEMPERATURE IN CELSIUS
  WCI - WIND CHILL INDEX
   HX - HEAT INDEX
  VSB - VISIBILITY




USA.gov is the U.S. government's official web portal to all federal, state and local government web resources and services.